Tracking 28793 objects as of 20-Apr-2024
HD Live streaming from Space Station
objects crossing your sky now

STARLINK-1798

Track STARLINK-1798 now!
10-day predictions
STARLINK-1798 is classified as:


NORAD ID: 46779
Int'l Code: 2020-074AS
Perigee: 553.5 km
Apogee: 555.0 km
Inclination: 53.1 °
Period: 95.6 minutes
Semi major axis: 6925 km
RCS: Unknown
Launch date: October 24, 2020
Source: United States (US)
Launch site: AIR FORCE EASTERN TEST RANGE (AFETR)
Your satellite tracking list
Your tracking list is empty




NASA's NSSDC Master Catalog

Two Line Element Set (TLE):
1 46779U 20074AS  24111.42720220  .00014216  00000-0  97047-3 0  9998
2 46779  53.0535 161.3467 0001078  84.9060 275.2052 15.06433370193072
Source of the keplerian elements: AFSPC